Home   Weather   Plymouth   Past weeks

Flag for United Kingdom Past Weather in Plymouth, England, United Kingdom — Yesterday and Last 2 Weeks

54 °F

Passing clouds.

Feels Like: 53 °F
Forecast: 45 / 60 °F
Wind: 5 mph from Southwest

Location: Exeter Airport

Current Time: Oct 27, 2016 at 10:03:25 PM

Latest Report: Oct 27, 2016 at 8:50 PM

Visibility: N/A

Pressure: 30.51 "Hg

Humidity: 88%

Dew Point: 50 °F

Location of PlymouthLocation

Past Weather in Plymouth — Graph


Plymouth Temperature Yesterday

Maximum temperature yesterday: 59 °F (at 1:20 PM)
Minimum temperature yesterday: 45 °F (at 7:50 AM)
Average temperature yesterday: 52 °F

High & Low Weather Summary for the Past Weeks

High61 °F (Oct 16, 12:20 PM)100% (Oct 14, 6:20 AM)30.51 "Hg (Oct 14, 6:20 AM)
Low32 °F (Oct 22, 7:20 AM)59% (Oct 16, 12:50 PM)29.59 "Hg (Oct 14, 9:50 PM)
Average50 °F86%30.02 "Hg
* Reported Oct 12 8:50 PM — Oct 27 8:50 PM, Plymouth, Weather by CustomWeather, © 2016

Note: Actual official high and low records may vary slightly from our data, if they occured in-between our weather recording intervals... More about our weather records


Plymouth Weather History for the Previous 24 Hours

Scroll right to see more
Time TempWeatherWind HumidityBarometerVisibility
8:50 PM
Thu, Oct 27
54 °FPassing clouds.5 mph88%30.51 "HgN/A
8:20 PM54 °FPassing clouds.6 mph88%30.51 "HgN/A
7:50 PM54 °FPassing clouds.6 mph88%30.51 "HgN/A
7:20 PM55 °FPassing clouds.8 mph82%30.51 "HgN/A
6:50 PM55 °FPassing clouds.8 mph82%30.51 "HgN/A
6:20 PM55 °FPassing clouds.8 mph82%30.48 "HgN/A
5:50 PM57 °FPartly sunny.6 mph82%30.48 "HgN/A
5:20 PM57 °FPartly sunny.8 mph82%30.48 "HgN/A
4:50 PM57 °FPartly sunny.8 mph82%30.48 "HgN/A
4:20 PM59 °FPartly sunny.8 mph77%30.48 "HgN/A
3:50 PM59 °FPartly sunny.10 mph77%30.48 "HgN/A
3:20 PM59 °FPartly sunny.8 mph77%30.48 "HgN/A
2:50 PM59 °FPartly sunny.6 mph77%30.48 "HgN/A
2:20 PM59 °FPartly sunny.6 mph82%30.48 "HgN/A
1:50 PM57 °FPartly sunny.7 mph88%30.51 "HgN/A
1:20 PM55 °FPartly sunny.7 mph100%30.51 "HgN/A
12:50 PM54 °FPartly sunny.6 mph100%30.51 "HgN/A
12:20 PM50 °FPartly sunny.5 mph100%30.51 "HgN/A
11:50 AM48 °FOvercast.3 mph100%30.51 "HgN/A
11:20 AM46 °FOvercast.5 mph93%30.51 "HgN/A
10:50 AM45 °FPartly sunny.2 mph100%30.51 "HgN/A
10:20 AM43 °FPartly sunny.2 mph100%30.51 "HgN/A
9:50 AM43 °FQuite cool.1 mph93%30.51 "Hg4 mi
9:20 AM41 °FFog.1 mph100%30.51 "Hg1 mi
8:50 AM41 °FFog.1 mph93%30.51 "Hg0 mi
8:20 AM41 °FFog.1 mph93%30.48 "Hg0 mi
7:50 AM41 °FFog.1 mph100%30.48 "Hg0 mi
7:20 AM41 °FFog.2 mph100%30.48 "Hg0 mi
6:50 AM41 °FFog.3 mph100%30.48 "Hg0 mi
6:20 AM43 °FFog.1 mph93%30.48 "Hg0 mi
5:50 AM43 °FFog.1 mph100%30.48 "Hg0 mi
2:20 AM43 °FFog.2 mph93%30.48 "Hg0 mi
1:50 AM41 °FFog.No wind100%30.48 "Hg0 mi
1:20 AM41 °FFog.2 mph100%30.48 "Hg0 mi
12:50 AM41 °FFog.1 mph100%30.48 "Hg0 mi
12:20 AM41 °FFog.2 mph100%30.48 "Hg0 mi
11:50 PM
Wed, Oct 26
45 °FFog.2 mph93%30.48 "HgN/A
11:20 PM45 °FPassing clouds.2 mph100%30.45 "Hg5 mi
10:50 PM46 °FPassing clouds.3 mph93%30.45 "HgN/A
10:20 PM48 °FPassing clouds.2 mph94%30.45 "HgN/A
Weather by CustomWeather, © 2016

See weather overviewHow to use our weather pages